This is the latest recevied weather packets stored in our database for station/object LX0APE-4. If no packets are shown the sender has not sent any weather packets the latest 10 day(s).
| Time | Temp. | Humidity | Pressure | Rain* | Wind** | Luminosity | Snow |
|---|---|---|---|---|---|---|---|
| 1777134735 | 35° C | 12% | 5014.8 hPa | 0 mm | - | - | - |
| 1777134435 | 35.56° C | 10% | 5014.6 hPa | 0 mm | - | - | - |
| 1777134139 | 36.11° C | 10% | 5014.5 hPa | 0 mm | - | - | - |
| 1777134135 | 36.11° C | 10% | 5014.5 hPa | 0 mm | - | - | - |
| 1777133835 | 36.11° C | 10% | 5014.7 hPa | 0 mm | - | - | - |
| 1777133535 | 36.67° C | 10% | 5014.6 hPa | 0 mm | - | - | - |
| 1777133235 | 36.67° C | 10% | 5014.8 hPa | 0 mm | - | - | - |
| 1777132935 | 36.67° C | 12% | 5014.7 hPa | 0 mm | - | - | - |
| 1777132635 | 35.56° C | 10% | 5014.5 hPa | 0 mm | - | - | - |
| 1777132335 | 35.56° C | 12% | 5014.7 hPa | 0 mm | - | - | - |
| 1777132035 | 35.56° C | 12% | 5014.8 hPa | 0 mm | - | - | - |
| 1777131735 | 35° C | 12% | 5014.9 hPa | 0 mm | - | - | - |
| 1777131435 | 35° C | 12% | 5014.6 hPa | 0 mm | - | - | - |
| 1777131135 | 34.44° C | 12% | 5014.7 hPa | 0 mm | - | - | - |
| 1777130835 | 34.44° C | 13% | 5014.6 hPa | 0 mm | - | - | - |
| 1777130535 | 34.44° C | 13% | 5014.5 hPa | 0 mm | - | - | - |
| 1777130235 | 33.89° C | 13% | 5014.7 hPa | 0 mm | - | - | - |
| 1777129935 | 32.22° C | 14% | 5014.7 hPa | 0 mm | - | - | - |
| 1777129635 | 31.67° C | 14% | 5014.7 hPa | 0 mm | - | - | - |
| 1777129335 | 31.67° C | 14% | 5014.7 hPa | 0 mm | - | - | - |
| 1777129035 | 31.11° C | 14% | 5014.7 hPa | 0 mm | - | - | - |
| 1777128735 | 31.11° C | 14% | 5014.7 hPa | 0 mm | - | - | - |
| 1777128436 | 31.11° C | 15% | 5014.6 hPa | 0 mm | - | - | - |
| 1777128135 | 31.11° C | 15% | 5014.6 hPa | 0 mm | - | - | - |
| 1777127841 | 31.11° C | 15% | 5014.5 hPa | 0 mm | - | - | - |
* Rain latest hour (hover to see other rain measurements)
** Current wind speed in m/s (hover to see current wind gust speed)